Location: Kawakawa
(35.3830°S, 174.0670°E)
Time: 16:40:53
(UTC+12:00)

Meteor 1-26 Rocket - Pass Details

Date: 24 January 2019
Orbit: 821 x 914 km, 81.3° (Epoch: 20 April)

Event Time Altitude Azimuth Distance (km) Brightness Sun altitude
Exits shadow 22:55:38 53° 28° (NNE) 1,090 4.3 -23.5°
Maximum altitude 22:56:54 68° 85° (E) 959 4.2 -23.7°
Drops below altitude 10° 23:02:38 10° 166° (SSE) 2,540 7.1 -24.4°
Sets 23:05:04 0° 168° (SSE) 3,470 7.9 -24.8°
